Flag for Denmark Weather past 2 weeks in Esbjerg, Denmark

Now
63 °F

Broken clouds.


Feels Like: 63 °F
Forecast: 56 / 59 °F
Wind: 9 mph from West

Location: Esbjerg Airport

Current Time: Jul 28, 2015 at 12:58:55 PM

Latest Report: Jul 28, 2015 at 12:20 PM


Visibility: N/A

Pressure: 29.39 "Hg

Humidity: 83%

Dew point: 57 °F

Location of EsbjergLocation

Historic Weather in Esbjerg — Graph

°F

Esbjerg temperature yesterday

Maximum temperature yesterday: 61 °F (at 11:20 AM)
Minimum temperature yesterday: 54 °F (at 12:20 AM)
Average temperature yesterday: 57 °F

Past Weeks' High & Low Weather Summary

 TemperatureHumidityPressure
High70 °F (Jul 17, 3:20 PM)100% (Jul 13, 11:50 PM)30.12 "Hg (Jul 13, 11:50 PM)
Low45 °F (Jul 17, 1:20 AM)40% (Jul 24, 4:50 PM)29.33 "Hg (Jul 28, 5:50 AM)
Average59 °F80%29.83 "Hg
* Reported Jul 13 11:20 AM — Jul 28 11:20 AM, Esbjerg, Weather by CustomWeather, © 2015

Note: Actual official high and low records may vary slightly from our data, if they occured in-between our weather recording intervals... More about our weather records

Advertising

Esbjerg weather history for previous 24 hours

 ConditionsComfort  
Time TempWeatherWind HumidityBarometerVisibility
11:20 AM
Tue, Jul 28
64 °FPartly sunny.9 mph83%29.39 "HgN/A
10:50 AM63 °FPartly sunny.7 mph88%29.39 "HgN/A
10:20 AM61 °FSprinkles. Broken clouds.7 mph94%29.39 "HgN/A
9:50 AM63 °FPartly sunny.7 mph88%29.36 "HgN/A
9:20 AM61 °FPartly sunny.7 mph88%29.36 "HgN/A
8:50 AM61 °FPartly sunny.6 mph94%29.36 "HgN/A
8:20 AM61 °FPartly sunny.6 mph94%29.36 "HgN/A
7:50 AM59 °FPartly sunny.7 mph100%29.36 "HgN/A
7:20 AM59 °FSprinkles. Partly sunny.7 mph94%29.36 "HgN/A
6:50 AM59 °FLight rain. Partly sunny.5 mph94%29.36 "Hg6 mi
6:20 AM57 °FPartly cloudy.5 mph100%29.36 "Hg6 mi
5:50 AM59 °FSprinkles. Passing clouds.5 mph94%29.33 "Hg6 mi
5:20 AM57 °FPartly cloudy.3 mph100%29.36 "HgN/A
4:50 AM59 °FPassing clouds.3 mph94%29.36 "Hg6 mi
4:20 AM59 °FPartly cloudy.3 mph94%29.36 "HgN/A
3:50 AM59 °FLow clouds.5 mph94%29.36 "HgN/A
3:20 AM59 °FPassing clouds.5 mph94%29.36 "HgN/A
2:50 AM59 °FPassing clouds.5 mph94%29.36 "HgN/A
2:20 AM59 °FRain. Mostly cloudy.3 mph94%29.36 "HgN/A
1:50 AM59 °FPartly cloudy.5 mph94%29.36 "HgN/A
1:20 AM59 °FRain. Passing clouds.7 mph94%29.36 "Hg3 mi
12:50 AM59 °FLight rain. Partly cloudy.2 mph94%29.36 "Hg4 mi
12:20 AM57 °FLots of rain. Partly cloudy.1 mph100%29.39 "Hg1 mi
11:50 PM
Mon, Jul 27
59 °FSprinkles. Passing clouds.1 mph94%29.39 "Hg3 mi
11:20 PM57 °FFog.2 mph100%29.39 "Hg1 mi
10:50 PM57 °FLight rain. Fog.1 mph100%29.39 "Hg3 mi
10:20 PM57 °FLight rain. Broken clouds.2 mph100%29.39 "Hg4 mi
9:50 PM59 °FRain. Broken clouds.2 mph94%29.39 "Hg2 mi
9:20 PM59 °FRain showers. Partly sunny.3 mph94%29.39 "Hg2 mi
8:50 PM59 °FRain showers. Partly sunny.5 mph94%29.39 "Hg4 mi
8:20 PM59 °FLow clouds.7 mph100%29.39 "HgN/A
7:50 PM59 °FLight rain. Partly sunny.6 mph100%29.39 "HgN/A
7:20 PM59 °FRain showers. Partly sunny.6 mph100%29.39 "Hg5 mi
6:50 PM59 °FSprinkles. Partly sunny.6 mph100%29.39 "Hg4 mi
6:20 PM59 °FSprinkles. Partly sunny.7 mph100%29.42 "Hg5 mi
5:50 PM59 °FRain showers. Partly sunny.8 mph94%29.42 "Hg3 mi
5:20 PM59 °FSprinkles. Low clouds.8 mph94%29.42 "Hg5 mi
4:50 PM59 °FPartly sunny.7 mph94%29.42 "Hg3 mi
4:20 PM59 °FDrizzle. Partly sunny.7 mph94%29.42 "Hg4 mi
3:50 PM59 °FOvercast.9 mph88%29.42 "HgN/A
3:20 PM59 °FOvercast.10 mph88%29.42 "HgN/A
2:50 PM59 °FOvercast.9 mph88%29.42 "HgN/A
2:20 PM59 °FPartly sunny.9 mph88%29.45 "HgN/A
1:50 PM57 °FOvercast.7 mph88%29.45 "HgN/A
1:20 PM57 °FOvercast.8 mph88%29.45 "HgN/A
12:50 PM59 °FPartly sunny.9 mph82%29.45 "HgN/A
12:20 PM59 °FOvercast.10 mph82%29.45 "HgN/A
Weather by CustomWeather, © 2015

See weather overviewHow to use our weather pages